Weather History for KEST - October, 2011

Change the Weather History Date:

Sunday, October 16, 2011

  Actual Average Record
Temperature  
Mean Temperature 49 °F 48 °F  
Max Temperature 59 °F 60 °F 84 °F (1968)
Min Temperature 38 °F 36 °F 23 °F (1970)
Degree Days  
Heating Degree Days 16 17  
Month to date heating degree days 102 229  
Since 1 July heating degree days 322 437  
Cooling Degree Days 0 0  
Month to date cooling degree days 21 4  
Year to date cooling degree days 767 591  
Moisture  
Dew Point 34 °F    
Average Humidity 61    
Maximum Humidity 92    
Minimum Humidity 30    
Precipitation  
Precipitation 0.03 in 0.06 in 0.75 in (2000)
Month to date precipitation 0.25 1.42  
Year to date precipitation 19.01  
Sea Level Pressure  
Sea Level Pressure 29.96 in    
Wind  
Wind Speed 11 mph (NW)    
Max Wind Speed 23 mph    
Max Gust Speed 33 mph    
Visibility 10 miles    
Events      
T = Trace of Precipitation, MM = Missing Value Source: NWS Daily Summary

Daily Weather History Graph

Daily Weather History Graph

Search for Another Location

Airport or City:

Trip Planner

Search our weather history database for the weather conditions in past years. The results will help you decide how hot, cold, wet, or windy it might be!

Date:

Astronomy

Oct. 16, 2011 Rise Set
Actual Time 7:33 AM CDT 6:34 PM CDT
Civil Twilight 7:05 AM CDT 7:03 PM CDT
Nautical Twilight 6:31 AM CDT 7:36 PM CDT
Astronomical Twilight 5:58 AM CDT 8:09 PM CDT
Moon 9:13 PM CDT (10/16) 11:59 AM CDT (10/16)
Length of Visible Light 11h 58m
Length of Day
11h 00m
Waning Gibbous, 82% of the Moon is Illuminated
Oct 16
Waning Gibbous
Oct 19
Last Quarter
Oct 26
New
Nov 2
First Quarter
Nov 10
Full

Hourly Weather History & Observations

Time (CDT) Temp. Windchill Dew Point Humidity Pressure Visibility Wind Dir Wind Speed Gust Speed Precip Events Conditions
1:52 AM 46.0 °F 43.1 °F 43.0 °F 89% 29.89 in 10.0 mi North 5.8 mph - 0.02 in   Overcast
2:52 AM 45.0 °F 42.6 °F 43.0 °F 93% 29.86 in 10.0 mi North 4.6 mph - 0.01 in   Mostly Cloudy
3:52 AM 44.1 °F 40.1 °F 41.0 °F 89% 29.86 in 10.0 mi North 6.9 mph - N/A   Clear
4:52 AM 43.0 °F 38.8 °F 39.9 °F 89% 29.89 in 10.0 mi NW 6.9 mph - N/A   Clear
6:52 AM 41.0 °F 36.4 °F 37.9 °F 89% 29.95 in 10.0 mi WNW 6.9 mph - N/A   Clear
7:52 AM 41.0 °F 36.4 °F 37.9 °F 89% 29.96 in 10.0 mi WNW 6.9 mph - N/A   Clear
8:52 AM 44.1 °F 39.0 °F 39.0 °F 82% 29.97 in 10.0 mi WNW 9.2 mph - N/A   Clear
9:52 AM 48.0 °F - 39.9 °F 74% 29.98 in 10.0 mi NW 10.4 mph 18.4 mph N/A   Clear
10:52 AM 52.0 °F - 39.0 °F 61% 29.99 in 10.0 mi WNW 13.8 mph 21.9 mph N/A   Clear
11:52 AM 55.0 °F - 37.9 °F 53% 29.99 in 10.0 mi NNW 16.1 mph 26.5 mph N/A   Clear
12:52 PM 55.9 °F - 35.1 °F 45% 29.99 in 10.0 mi NW 12.7 mph 25.3 mph N/A   Clear
1:52 PM 55.9 °F - 32.0 °F 40% 29.98 in 10.0 mi NW 18.4 mph 26.5 mph N/A   Scattered Clouds
2:52 PM 57.9 °F - 28.9 °F 33% 29.96 in 10.0 mi WNW 19.6 mph 29.9 mph N/A   Clear
4:52 PM 57.0 °F - 26.1 °F 30% 29.97 in 10.0 mi WNW 15.0 mph 27.6 mph N/A   Clear
5:52 PM 55.0 °F - 26.1 °F 33% 29.96 in 10.0 mi WNW 16.1 mph 24.2 mph N/A   Clear
6:52 PM 50.0 °F - 28.0 °F 43% 29.96 in 10.0 mi West 9.2 mph - N/A   Clear
7:52 PM 48.0 °F - 28.9 °F 48% 29.98 in 10.0 mi West 9.2 mph - N/A   Clear
8:52 PM 46.0 °F 41.4 °F 28.9 °F 51% 29.98 in 10.0 mi West 9.2 mph - N/A   Clear
9:52 PM 42.1 °F 37.1 °F 30.0 °F 62% 30.00 in 10.0 mi WNW 8.1 mph - N/A   Clear
10:52 PM 39.0 °F 33.4 °F 28.9 °F 67% 30.01 in 10.0 mi WNW 8.1 mph - N/A   Clear
11:52 PM 39.0 °F 33.4 °F 30.0 °F 70% 30.00 in 10.0 mi West 8.1 mph - N/A   Clear